TimeCDT,TemperatureF,Dew PointF,Humidity,Sea Level PressureIn,VisibilityMPH,Wind Direction,Wind SpeedMPH,Gust SpeedMPH,PrecipitationIn,Events,Conditions,WindDirDegrees,DateUTC
12:53 AM,80.1,75.0,85,29.93,10.0,SW,4.6,-,N/A,,Clear,220,2012-09-04 05:53:00
1:53 AM,80.1,75.0,85,29.93,10.0,SW,4.6,-,N/A,,Clear,230,2012-09-04 06:53:00
2:53 AM,79.0,75.0,88,29.93,10.0,Calm,Calm,-,N/A,,Clear,0,2012-09-04 07:53:00
3:53 AM,78.1,75.9,93,29.92,10.0,Variable,4.6,-,N/A,,Clear,0,2012-09-04 08:53:00
4:53 AM,78.1,75.9,93,29.93,8.0,Variable,3.5,-,N/A,,Partly Cloudy,0,2012-09-04 09:53:00
5:09 AM,78.8,75.2,89,29.91,7.0,WSW,4.6,-,N/A,,Mostly Cloudy,250,2012-09-04 10:09:00
5:44 AM,77.0,75.2,94,29.91,6.0,Calm,Calm,-,N/A,,Mostly Cloudy,0,2012-09-04 10:44:00
5:53 AM,77.0,75.9,96,29.93,6.0,Calm,Calm,-,N/A,,Mostly Cloudy,0,2012-09-04 10:53:00
6:53 AM,77.0,75.9,96,29.95,5.0,SW,4.6,-,N/A,,Overcast,220,2012-09-04 11:53:00
7:53 AM,78.1,75.9,93,29.96,7.0,Variable,4.6,-,N/A,,Overcast,0,2012-09-04 12:53:00
8:01 AM,78.8,77.0,94,29.93,7.0,Variable,4.6,-,N/A,,Overcast,0,2012-09-04 13:01:00
8:53 AM,81.0,77.0,88,29.95,10.0,Variable,4.6,-,N/A,,Scattered Clouds,0,2012-09-04 13:53:00
9:12 AM,82.4,77.0,84,29.94,10.0,SW,5.8,-,N/A,,Mostly Cloudy,230,2012-09-04 14:12:00
9:22 AM,82.4,77.0,84,29.94,10.0,Variable,6.9,-,N/A,,Scattered Clouds,0,2012-09-04 14:22:00
9:35 AM,84.2,78.8,84,29.93,10.0,Variable,4.6,-,N/A,,Mostly Cloudy,0,2012-09-04 14:35:00
9:43 AM,84.2,77.0,79,29.93,10.0,West,9.2,16.1,N/A,,Scattered Clouds,260,2012-09-04 14:43:00
9:53 AM,84.9,77.0,77,29.96,10.0,WSW,8.1,-,N/A,,Partly Cloudy,250,2012-09-04 14:53:00
10:53 AM,88.0,77.0,70,29.96,10.0,Variable,6.9,-,N/A,,Partly Cloudy,0,2012-09-04 15:53:00
11:53 AM,91.0,78.1,66,29.96,10.0,WNW,5.8,-,N/A,,Partly Cloudy,290,2012-09-04 16:53:00
12:53 PM,93.0,77.0,59,29.94,10.0,West,8.1,-,N/A,,Partly Cloudy,280,2012-09-04 17:53:00
1:53 PM,95.0,78.1,58,29.92,10.0,Variable,6.9,-,N/A,,Clear,0,2012-09-04 18:53:00
2:53 PM,95.0,75.9,54,29.90,10.0,NW,4.6,-,N/A,,Clear,310,2012-09-04 19:53:00
3:53 PM,96.1,77.0,54,29.88,10.0,West,8.1,-,N/A,,Clear,260,2012-09-04 20:53:00
5:53 PM,93.0,77.0,59,29.86,10.0,West,5.8,-,N/A,,Clear,260,2012-09-04 22:53:00
6:53 PM,89.1,78.1,70,29.87,10.0,West,3.5,-,N/A,,Clear,260,2012-09-04 23:53:00
7:53 PM,84.0,78.1,82,29.87,10.0,WSW,3.5,-,N/A,,Clear,240,2012-09-05 00:53:00
8:53 PM,82.0,78.1,88,29.87,10.0,West,4.6,-,N/A,,Clear,260,2012-09-05 01:53:00
9:53 PM,81.0,77.0,88,29.88,10.0,Calm,Calm,-,N/A,,Clear,0,2012-09-05 02:53:00
10:53 PM,82.0,77.0,85,29.88,10.0,West,3.5,-,N/A,,Clear,260,2012-09-05 03:53:00
11:53 PM,81.0,75.9,85,29.88,10.0,WSW,3.5,-,N/A,,Clear,240,2012-09-05 04:53:00